Вернуться в каталог

SL-14 DEB

АктивенPO
NORAD 45283·DEBRIS·🇷🇺 Russia

Запущен Aug 15, 1991 с Plesetsk Cosmodrome

Loading…

Ближайшие Пролёты (ближайшие 24 часа)

TLE

СвежийSource: Space-Track

Эпоха: Sep 14, 2026, 13:54 UTC

1 45283U 91056V   26257.57983680  .00003073  00000-0  11659-1 0  9997
2 45283  82.5230 198.3910 0261175  83.9820 279.0976 12.79987830305830

Отслеживайте SL-14 DEB в реальном времени с AllMySat

Download on the App Store